Regional Weather Roundup
Issued by NWS

Home | Current Version | Previous Version | Graphics & Text | Print | Product List | Glossary On
Versions: 1 2 3 4 5 6 7 8 9 10 11 12 13 14 15 16 17 18 19 20 21 22 23 24 25 26 27 28 29 30 31 32 33 34 35 36 37 38 39 40 41 42 43 44 45 46 47 48 49 50
000
ASUS44 KMEG 120710
RWRTN
TENNESSEE HOURLY STATE WEATHER ROUNDUP
NATIONAL WEATHER SERVICE MEMPHIS TN
100 AM CST TUE DEC 12 2017

TNZ002-004-019-021-049-052-054-088>092-120800-
WEST TENNESSEE

CITY           SKY/WX    TMP DP  RH WIND       PRES   REMARKS
MEMPHIS INTL   CLOUDY    51  27  39 NW12      30.01R
NWS MEMPHIS      N/A     50 N/A N/A MISG        N/A
JACKSON        CLOUDY    49  30  48 NW10      29.98S
DYERSBURG      CLOUDY    49  31  49 NW9       30.00S
SOMERVILLE     PTCLDY    50  28  43 NW8       29.98R
COVINGTON      PTCLDY    48  30  49 N14       30.01R
UNION CITY     CLOUDY    48  32  53 N13       29.98S
BOLIVAR        CLEAR     50  27  40 NW6       29.97R
PARIS          CLOUDY    48  30  49 VRB5G14   29.96R
HUNTINGDON     MOCLDY    50  30  46 VRB7G14   29.96R
LEXINGTON      PTCLDY    48  27  43 NW6G12    29.95S
SELMER         CLEAR     46  27  46 W5        29.95F
SAVANNAH       CLEAR     46  27  46 NW5       29.95S
$$

TNZ008-025-027-028-033-062-065-066-120800-
NORTH MIDDLE TENNESSEE

CITY           SKY/WX    TMP DP  RH WIND       PRES   REMARKS
NASHVILLE      PTCLDY    48  27  44 NW6       29.91S
PORTLAND       MOCLDY    46  28  49 NW6       29.89S
CLARKSVILLE    PTCLDY    47  28  47 NW15      29.92R
SMYRNA         PTCLDY    42  27  55 NW5       29.92S
COOKEVILLE     MOCLDY    37  28  70 CALM      29.88S
GALLATIN       MOCLDY    48  28  46 VRB3      29.92S
CROSSVILLE     CLOUDY    45  27  49 NW8       29.86R
$$

TNZ061-075-076-078-094-096-097-120800-
SOUTH MIDDLE TENNESSEE

CITY           SKY/WX    TMP DP  RH WIND       PRES   REMARKS
FAYETTEVILLE   CLEAR     45  32  61 CALM      29.89S
TULLAHOMA      CLEAR     46  30  53 NW5       29.89R
WINCHESTER     CLEAR     46  32  57 W5        29.90S
MCMINNVILLE    PTCLDY    48  27  43 NW12      29.90R
COLUMBIA       CLEAR     48  25  40 CALM      29.90S
SHELBYVILLE    CLEAR     46  28  49 NW5       29.90S
$$

TNZ017-018-042-046-047-120800-
NORTHEAST TENNESSEE

CITY           SKY/WX    TMP DP  RH WIND       PRES   REMARKS
TRI CITIES     CLOUDY    31  30  96 CALM      29.79F
ELIZABETHTON   PTCLDY    32  30  93 CALM      29.81F
$$

TNZ012-013-036-069-073-074-120800-
CENTRAL EAST TENNESSEE

CITY           SKY/WX    TMP DP  RH WIND       PRES   REMARKS
KNOXVILLE      CLOUDY    46  35  65 SW13      29.83S
OAK RIDGE      MOCLDY    43  35  73 CALM      29.85F
DOWNTOWN KNOXV CLEAR     50  34  53 W12       29.84S
GATLINBURG     CLEAR     54  30  40 W14G22    29.81F
MORRISTOWN     PTCLDY    46  32  57 W9        29.81S
JACKSBORO      PTCLDY    50  28  43 VRB9G20   29.86R
$$

TNZ083-085-099-120800-
SOUTHEAST TENNESSEE

CITY           SKY/WX    TMP DP  RH WIND       PRES   REMARKS
CHATTANOOGA    CLEAR     46  32  58 SW7       29.87F
DAYTON         PTSUNNY   37  36  93 CALM      29.85F
$$

SKY/WX REPORTED AS FAIR MEANS FEW OR NO CLOUDS BELOW
12 THOUSAND FEET.





USA.gov is the U.S. government's official web portal to all federal, state and local government web resources and services.